Date,Time,Northbound Count,Southbound Count,Both Directions (sum)
2021-12-01,00:00:00,5,1,6
2021-12-01,01:00:00,2,1,3
2021-12-01,02:00:00,1,0,1
2021-12-01,03:00:00,1,2,3
2021-12-01,04:00:00,1,1,2
2021-12-01,05:00:00,1,6,7
2021-12-01,06:00:00,13,12,25
2021-12-01,07:00:00,93,27,120
2021-12-01,08:00:00,20,47,67
2021-12-01,09:00:00,33,44,77
2021-12-01,10:00:00,35,32,67
2021-12-01,11:00:00,34,44,78
2021-12-01,12:00:00,54,50,104
2021-12-01,13:00:00,43,53,96
2021-12-01,14:00:00,68,79,147
2021-12-01,15:00:00,46,29,75
2021-12-01,16:00:00,41,19,60
2021-12-01,17:00:00,40,22,62
2021-12-01,18:00:00,16,16,32
2021-12-01,19:00:00,11,10,21
2021-12-01,20:00:00,11,8,19
2021-12-01,21:00:00,12,9,21
2021-12-01,22:00:00,4,2,6
2021-12-01,23:00:00,4,3,7
2021-12-02,00:00:00,15,3,18
2021-12-02,01:00:00,1,3,4
2021-12-02,02:00:00,0,0,0
2021-12-02,03:00:00,0,1,1
2021-12-02,04:00:00,0,2,2
2021-12-02,05:00:00,5,7,12
2021-12-02,06:00:00,8,10,18
2021-12-02,07:00:00,91,27,118
2021-12-02,08:00:00,24,61,85
2021-12-02,09:00:00,29,50,79
2021-12-02,10:00:00,42,33,75
2021-12-02,11:00:00,30,33,63
2021-12-02,12:00:00,43,63,106
2021-12-02,13:00:00,39,27,66
2021-12-02,14:00:00,33,90,123
2021-12-02,15:00:00,66,29,95
2021-12-02,16:00:00,37,32,69
2021-12-02,17:00:00,30,17,47
2021-12-02,18:00:00,24,24,48
2021-12-02,19:00:00,18,16,34
2021-12-02,20:00:00,12,13,25
2021-12-02,21:00:00,8,4,12
2021-12-02,22:00:00,6,1,7
2021-12-02,23:00:00,8,7,15
2021-12-03,00:00:00,2,1,3
2021-12-03,01:00:00,6,0,6
2021-12-03,02:00:00,8,2,10
2021-12-03,03:00:00,0,2,2
2021-12-03,04:00:00,0,2,2
2021-12-03,05:00:00,3,6,9
2021-12-03,06:00:00,3,8,11
2021-12-03,07:00:00,96,21,117
2021-12-03,08:00:00,16,28,44
2021-12-03,09:00:00,10,41,51
2021-12-03,10:00:00,38,49,87
2021-12-03,11:00:00,30,40,70
2021-12-03,12:00:00,50,46,96
2021-12-03,13:00:00,32,31,63
2021-12-03,14:00:00,44,96,140
2021-12-03,15:00:00,57,36,93
2021-12-03,16:00:00,45,15,60
2021-12-03,17:00:00,24,17,41
2021-12-03,18:00:00,14,16,30
2021-12-03,19:00:00,10,17,27
2021-12-03,20:00:00,16,3,19
2021-12-03,21:00:00,14,13,27
2021-12-03,22:00:00,4,2,6
2021-12-03,23:00:00,5,5,10
2021-12-04,00:00:00,6,0,6
2021-12-04,01:00:00,3,0,3
2021-12-04,02:00:00,1,0,1
2021-12-04,03:00:00,0,1,1
2021-12-04,04:00:00,3,1,4
2021-12-04,05:00:00,2,0,2
2021-12-04,06:00:00,4,14,18
2021-12-04,07:00:00,5,14,19
2021-12-04,08:00:00,32,18,50
2021-12-04,09:00:00,34,36,70
2021-12-04,10:00:00,37,40,77
2021-12-04,11:00:00,27,45,72
2021-12-04,12:00:00,28,52,80
2021-12-04,13:00:00,29,25,54
2021-12-04,14:00:00,39,39,78
2021-12-04,15:00:00,21,34,55
2021-12-04,16:00:00,23,17,40
2021-12-04,17:00:00,23,12,35
2021-12-04,18:00:00,13,13,26
2021-12-04,19:00:00,6,10,16
2021-12-04,20:00:00,11,13,24
2021-12-04,21:00:00,9,7,16
2021-12-04,22:00:00,12,10,22
2021-12-04,23:00:00,5,5,10
2021-12-05,00:00:00,10,2,12
2021-12-05,01:00:00,3,3,6
2021-12-05,02:00:00,7,0,7
2021-12-05,03:00:00,3,1,4
2021-12-05,04:00:00,0,0,0
2021-12-05,05:00:00,1,1,2
2021-12-05,06:00:00,2,3,5
2021-12-05,07:00:00,11,10,21
2021-12-05,08:00:00,17,28,45
2021-12-05,09:00:00,36,25,61
2021-12-05,10:00:00,36,43,79
2021-12-05,11:00:00,26,51,77
2021-12-05,12:00:00,36,27,63
2021-12-05,13:00:00,12,22,34
2021-12-05,14:00:00,21,22,43
2021-12-05,15:00:00,16,20,36
2021-12-05,16:00:00,24,16,40
2021-12-05,17:00:00,8,8,16
2021-12-05,18:00:00,12,9,21
2021-12-05,19:00:00,4,2,6
2021-12-05,20:00:00,2,5,7
2021-12-05,21:00:00,5,3,8
2021-12-05,22:00:00,2,0,2
2021-12-05,23:00:00,2,3,5
2021-12-06,00:00:00,1,0,1
2021-12-06,01:00:00,1,0,1
2021-12-06,02:00:00,0,0,0
2021-12-06,03:00:00,0,2,2
2021-12-06,04:00:00,0,1,1
2021-12-06,05:00:00,0,4,4
2021-12-06,06:00:00,6,15,21
2021-12-06,07:00:00,103,22,125
2021-12-06,08:00:00,24,46,70
2021-12-06,09:00:00,27,45,72
2021-12-06,10:00:00,46,43,89
2021-12-06,11:00:00,31,35,66
2021-12-06,12:00:00,41,44,85
2021-12-06,13:00:00,19,24,43
2021-12-06,14:00:00,26,87,113
2021-12-06,15:00:00,34,29,63
2021-12-06,16:00:00,46,24,70
2021-12-06,17:00:00,29,22,51
2021-12-06,18:00:00,17,9,26
2021-12-06,19:00:00,28,22,50
2021-12-06,20:00:00,8,4,12
2021-12-06,21:00:00,7,8,15
2021-12-06,22:00:00,6,4,10
2021-12-06,23:00:00,4,5,9
2021-12-07,00:00:00,4,1,5
2021-12-07,01:00:00,0,0,0
2021-12-07,02:00:00,2,0,2
2021-12-07,03:00:00,0,2,2
2021-12-07,04:00:00,1,1,2
2021-12-07,05:00:00,0,4,4
2021-12-07,06:00:00,6,15,21
2021-12-07,07:00:00,88,33,121
2021-12-07,08:00:00,17,41,58
2021-12-07,09:00:00,41,33,74
2021-12-07,10:00:00,18,40,58
2021-12-07,11:00:00,25,21,46
2021-12-07,12:00:00,28,25,53
2021-12-07,13:00:00,14,21,35
2021-12-07,14:00:00,33,66,99
2021-12-07,15:00:00,28,15,43
2021-12-07,16:00:00,18,13,31
2021-12-07,17:00:00,22,9,31
2021-12-07,18:00:00,16,18,34
2021-12-07,19:00:00,16,7,23
2021-12-07,20:00:00,11,8,19
2021-12-07,21:00:00,8,4,12
2021-12-07,22:00:00,6,2,8
2021-12-07,23:00:00,3,1,4
2021-12-08,00:00:00,1,1,2
2021-12-08,01:00:00,0,0,0
2021-12-08,02:00:00,1,0,1
2021-12-08,03:00:00,0,0,0
2021-12-08,04:00:00,0,2,2
2021-12-08,05:00:00,1,4,5
2021-12-08,06:00:00,6,18,24
2021-12-08,07:00:00,95,19,114
2021-12-08,08:00:00,22,55,77
2021-12-08,09:00:00,31,55,86
2021-12-08,10:00:00,46,39,85
2021-12-08,11:00:00,50,54,104
2021-12-08,12:00:00,45,42,87
2021-12-08,13:00:00,41,51,92
2021-12-08,14:00:00,32,72,104
2021-12-08,15:00:00,52,31,83
2021-12-08,16:00:00,33,32,65
2021-12-08,17:00:00,24,15,39
2021-12-08,18:00:00,19,21,40
2021-12-08,19:00:00,12,12,24
2021-12-08,20:00:00,11,11,22
2021-12-08,21:00:00,12,4,16
2021-12-08,22:00:00,7,2,9
2021-12-08,23:00:00,2,5,7
2021-12-09,00:00:00,1,0,1
2021-12-09,01:00:00,0,0,0
2021-12-09,02:00:00,0,4,4
2021-12-09,03:00:00,4,1,5
2021-12-09,04:00:00,0,0,0
2021-12-09,05:00:00,2,7,9
2021-12-09,06:00:00,7,14,21
2021-12-09,07:00:00,75,33,108
2021-12-09,08:00:00,20,49,69
2021-12-09,09:00:00,31,48,79
2021-12-09,10:00:00,42,35,77
2021-12-09,11:00:00,24,30,54
2021-12-09,12:00:00,57,48,105
2021-12-09,13:00:00,26,35,61
2021-12-09,14:00:00,53,85,138
2021-12-09,15:00:00,56,47,103
2021-12-09,16:00:00,39,27,66
2021-12-09,17:00:00,24,12,36
2021-12-09,18:00:00,10,9,19
2021-12-09,19:00:00,11,3,14
2021-12-09,20:00:00,8,5,13
2021-12-09,21:00:00,3,6,9
2021-12-09,22:00:00,6,4,10
2021-12-09,23:00:00,5,1,6
2021-12-10,00:00:00,5,0,5
2021-12-10,01:00:00,2,0,2
2021-12-10,02:00:00,14,1,15
2021-12-10,03:00:00,1,2,3
2021-12-10,04:00:00,1,1,2
2021-12-10,05:00:00,2,5,7
2021-12-10,06:00:00,5,13,18
2021-12-10,07:00:00,85,22,107
2021-12-10,08:00:00,31,53,84
2021-12-10,09:00:00,26,57,83
2021-12-10,10:00:00,46,51,97
2021-12-10,11:00:00,52,43,95
2021-12-10,12:00:00,46,43,89
2021-12-10,13:00:00,35,38,73
2021-12-10,14:00:00,46,89,135
2021-12-10,15:00:00,50,41,91
2021-12-10,16:00:00,39,29,68
2021-12-10,17:00:00,30,17,47
2021-12-10,18:00:00,20,21,41
2021-12-10,19:00:00,7,19,26
2021-12-10,20:00:00,11,6,17
2021-12-10,21:00:00,14,6,20
2021-12-10,22:00:00,14,5,19
2021-12-10,23:00:00,6,3,9
2021-12-11,00:00:00,11,3,14
2021-12-11,01:00:00,4,0,4
2021-12-11,02:00:00,10,0,10
2021-12-11,03:00:00,2,1,3
2021-12-11,04:00:00,0,1,1
2021-12-11,05:00:00,3,2,5
2021-12-11,06:00:00,4,7,11
2021-12-11,07:00:00,8,10,18
2021-12-11,08:00:00,24,26,50
2021-12-11,09:00:00,24,31,55
2021-12-11,10:00:00,31,42,73
2021-12-11,11:00:00,26,54,80
2021-12-11,12:00:00,26,37,63
2021-12-11,13:00:00,32,33,65
2021-12-11,14:00:00,34,40,74
2021-12-11,15:00:00,46,24,70
2021-12-11,16:00:00,27,27,54
2021-12-11,17:00:00,16,11,27
2021-12-11,18:00:00,13,12,25
2021-12-11,19:00:00,12,10,22
2021-12-11,20:00:00,5,8,13
2021-12-11,21:00:00,7,7,14
2021-12-11,22:00:00,5,6,11
2021-12-11,23:00:00,16,8,24
2021-12-12,00:00:00,2,1,3
2021-12-12,01:00:00,9,0,9
2021-12-12,02:00:00,15,0,15
2021-12-12,03:00:00,0,2,2
2021-12-12,04:00:00,0,0,0
2021-12-12,05:00:00,0,4,4
2021-12-12,06:00:00,3,8,11
2021-12-12,07:00:00,10,4,14
2021-12-12,08:00:00,31,24,55
2021-12-12,09:00:00,35,35,70
2021-12-12,10:00:00,45,45,90
2021-12-12,11:00:00,33,29,62
2021-12-12,12:00:00,18,32,50
2021-12-12,13:00:00,18,43,61
2021-12-12,14:00:00,25,19,44
2021-12-12,15:00:00,36,33,69
2021-12-12,16:00:00,17,27,44
2021-12-12,17:00:00,8,10,18
2021-12-12,18:00:00,4,10,14
2021-12-12,19:00:00,4,7,11
2021-12-12,20:00:00,9,1,10
2021-12-12,21:00:00,5,2,7
2021-12-12,22:00:00,1,1,2
2021-12-12,23:00:00,1,2,3
2021-12-13,00:00:00,1,0,1
2021-12-13,01:00:00,1,2,3
2021-12-13,02:00:00,1,2,3
2021-12-13,03:00:00,3,1,4
2021-12-13,04:00:00,0,2,2
2021-12-13,05:00:00,2,4,6
2021-12-13,06:00:00,3,14,17
2021-12-13,07:00:00,112,32,144
2021-12-13,08:00:00,17,42,59
2021-12-13,09:00:00,24,34,58
2021-12-13,10:00:00,40,42,82
2021-12-13,11:00:00,49,45,94
2021-12-13,12:00:00,59,49,108
2021-12-13,13:00:00,33,39,72
2021-12-13,14:00:00,38,92,130
2021-12-13,15:00:00,52,32,84
2021-12-13,16:00:00,43,21,64
2021-12-13,17:00:00,25,30,55
2021-12-13,18:00:00,21,16,37
2021-12-13,19:00:00,13,13,26
2021-12-13,20:00:00,13,6,19
2021-12-13,21:00:00,8,7,15
2021-12-13,22:00:00,8,6,14
2021-12-13,23:00:00,6,7,13
2021-12-14,00:00:00,9,1,10
2021-12-14,01:00:00,0,0,0
2021-12-14,02:00:00,2,3,5
2021-12-14,03:00:00,0,2,2
2021-12-14,04:00:00,0,2,2
2021-12-14,05:00:00,3,5,8
2021-12-14,06:00:00,9,15,24
2021-12-14,07:00:00,83,23,106
2021-12-14,08:00:00,22,41,63
2021-12-14,09:00:00,31,43,74
2021-12-14,10:00:00,32,31,63
2021-12-14,11:00:00,53,47,100
2021-12-14,12:00:00,43,59,102
2021-12-14,13:00:00,50,29,79
2021-12-14,14:00:00,28,88,116
2021-12-14,15:00:00,40,52,92
2021-12-14,16:00:00,26,23,49
2021-12-14,17:00:00,35,17,52
2021-12-14,18:00:00,17,10,27
2021-12-14,19:00:00,11,13,24
2021-12-14,20:00:00,5,7,12
2021-12-14,21:00:00,9,6,15
2021-12-14,22:00:00,9,5,14
2021-12-14,23:00:00,8,2,10
2021-12-15,00:00:00,4,1,5
2021-12-15,01:00:00,0,0,0
2021-12-15,02:00:00,2,0,2
2021-12-15,03:00:00,0,2,2
2021-12-15,04:00:00,1,0,1
2021-12-15,05:00:00,5,6,11
2021-12-15,06:00:00,10,14,24
2021-12-15,07:00:00,85,33,118
2021-12-15,08:00:00,21,50,71
2021-12-15,09:00:00,40,48,88
2021-12-15,10:00:00,34,34,68
2021-12-15,11:00:00,29,31,60
2021-12-15,12:00:00,51,52,103
2021-12-15,13:00:00,51,42,93
2021-12-15,14:00:00,38,100,138
2021-12-15,15:00:00,65,35,100
2021-12-15,16:00:00,43,26,69
2021-12-15,17:00:00,36,17,53
2021-12-15,18:00:00,16,19,35
2021-12-15,19:00:00,17,11,28
2021-12-15,20:00:00,15,12,27
2021-12-15,21:00:00,17,6,23
2021-12-15,22:00:00,8,7,15
2021-12-15,23:00:00,8,3,11
2021-12-16,00:00:00,3,1,4
2021-12-16,01:00:00,0,0,0
2021-12-16,02:00:00,1,0,1
2021-12-16,03:00:00,0,1,1
2021-12-16,04:00:00,0,0,0
2021-12-16,05:00:00,1,1,2
2021-12-16,06:00:00,10,9,19
2021-12-16,07:00:00,73,23,96
2021-12-16,08:00:00,36,52,88
2021-12-16,09:00:00,34,40,74
2021-12-16,10:00:00,51,62,113
2021-12-16,11:00:00,33,43,76
2021-12-16,12:00:00,38,29,67
2021-12-16,13:00:00,33,43,76
2021-12-16,14:00:00,30,85,115
2021-12-16,15:00:00,54,23,77
2021-12-16,16:00:00,32,29,61
2021-12-16,17:00:00,24,21,45
2021-12-16,18:00:00,18,18,36
2021-12-16,19:00:00,10,8,18
2021-12-16,20:00:00,8,5,13
2021-12-16,21:00:00,14,8,22
2021-12-16,22:00:00,5,7,12
2021-12-16,23:00:00,12,4,16
2021-12-17,00:00:00,5,0,5
2021-12-17,01:00:00,2,1,3
2021-12-17,02:00:00,13,1,14
2021-12-17,03:00:00,4,2,6
2021-12-17,04:00:00,0,1,1
2021-12-17,05:00:00,5,3,8
2021-12-17,06:00:00,8,10,18
2021-12-17,07:00:00,75,20,95
2021-12-17,08:00:00,21,44,65
2021-12-17,09:00:00,32,36,68
2021-12-17,10:00:00,34,29,63
2021-12-17,11:00:00,38,94,132
2021-12-17,12:00:00,36,46,82
2021-12-17,13:00:00,27,30,57
2021-12-17,14:00:00,40,34,74
2021-12-17,15:00:00,43,47,90
2021-12-17,16:00:00,28,29,57
2021-12-17,17:00:00,38,14,52
2021-12-17,18:00:00,13,15,28
2021-12-17,19:00:00,6,13,19
2021-12-17,20:00:00,10,6,16
2021-12-17,21:00:00,13,10,23
2021-12-17,22:00:00,6,2,8
2021-12-17,23:00:00,7,10,17
2021-12-18,00:00:00,3,0,3
2021-12-18,01:00:00,6,2,8
2021-12-18,02:00:00,0,0,0
2021-12-18,03:00:00,0,0,0
2021-12-18,04:00:00,1,0,1
2021-12-18,05:00:00,4,3,7
2021-12-18,06:00:00,4,7,11
2021-12-18,07:00:00,11,9,20
2021-12-18,08:00:00,26,26,52
2021-12-18,09:00:00,26,41,67
2021-12-18,10:00:00,39,43,82
2021-12-18,11:00:00,26,48,74
2021-12-18,12:00:00,32,61,93
2021-12-18,13:00:00,37,40,77
2021-12-18,14:00:00,39,46,85
2021-12-18,15:00:00,34,35,69
2021-12-18,16:00:00,26,28,54
2021-12-18,17:00:00,25,13,38
2021-12-18,18:00:00,12,15,27
2021-12-18,19:00:00,10,11,21
2021-12-18,20:00:00,9,7,16
2021-12-18,21:00:00,5,3,8
2021-12-18,22:00:00,8,1,9
2021-12-18,23:00:00,5,7,12
2021-12-19,00:00:00,3,1,4
2021-12-19,01:00:00,3,0,3
2021-12-19,02:00:00,1,0,1
2021-12-19,03:00:00,0,1,1
2021-12-19,04:00:00,0,0,0
2021-12-19,05:00:00,1,3,4
2021-12-19,06:00:00,4,4,8
2021-12-19,07:00:00,13,12,25
2021-12-19,08:00:00,22,18,40
2021-12-19,09:00:00,22,23,45
2021-12-19,10:00:00,37,49,86
2021-12-19,11:00:00,43,45,88
2021-12-19,12:00:00,38,51,89
2021-12-19,13:00:00,39,34,73
2021-12-19,14:00:00,27,56,83
2021-12-19,15:00:00,20,29,49
2021-12-19,16:00:00,20,21,41
2021-12-19,17:00:00,11,10,21
2021-12-19,18:00:00,7,6,13
2021-12-19,19:00:00,6,5,11
2021-12-19,20:00:00,4,1,5
2021-12-19,21:00:00,1,4,5
2021-12-19,22:00:00,11,1,12
2021-12-19,23:00:00,5,0,5
2021-12-20,00:00:00,3,1,4
2021-12-20,01:00:00,2,0,2
2021-12-20,02:00:00,0,0,0
2021-12-20,03:00:00,1,1,2
2021-12-20,04:00:00,1,1,2
2021-12-20,05:00:00,4,5,9
2021-12-20,06:00:00,8,12,20
2021-12-20,07:00:00,23,16,39
2021-12-20,08:00:00,14,26,40
2021-12-20,09:00:00,22,29,51
2021-12-20,10:00:00,33,37,70
2021-12-20,11:00:00,35,36,71
2021-12-20,12:00:00,39,42,81
2021-12-20,13:00:00,39,41,80
2021-12-20,14:00:00,37,29,66
2021-12-20,15:00:00,26,25,51
2021-12-20,16:00:00,26,15,41
2021-12-20,17:00:00,33,17,50
2021-12-20,18:00:00,9,19,28
2021-12-20,19:00:00,8,4,12
2021-12-20,20:00:00,9,16,25
2021-12-20,21:00:00,4,2,6
2021-12-20,22:00:00,3,2,5
2021-12-20,23:00:00,6,6,12
2021-12-21,00:00:00,1,2,3
2021-12-21,01:00:00,0,0,0
2021-12-21,02:00:00,1,1,2
2021-12-21,03:00:00,0,0,0
2021-12-21,04:00:00,1,2,3
2021-12-21,05:00:00,3,8,11
2021-12-21,06:00:00,11,11,22
2021-12-21,07:00:00,19,15,34
2021-12-21,08:00:00,13,19,32
2021-12-21,09:00:00,25,27,52
2021-12-21,10:00:00,23,30,53
2021-12-21,11:00:00,27,39,66
2021-12-21,12:00:00,33,28,61
2021-12-21,13:00:00,20,42,62
2021-12-21,14:00:00,26,31,57
2021-12-21,15:00:00,29,28,57
2021-12-21,16:00:00,38,26,64
2021-12-21,17:00:00,30,21,51
2021-12-21,18:00:00,20,8,28
2021-12-21,19:00:00,9,7,16
2021-12-21,20:00:00,1,3,4
2021-12-21,21:00:00,3,3,6
2021-12-21,22:00:00,3,2,5
2021-12-21,23:00:00,4,3,7
2021-12-22,00:00:00,2,0,2
2021-12-22,01:00:00,0,0,0
2021-12-22,02:00:00,1,5,6
2021-12-22,03:00:00,0,0,0
2021-12-22,04:00:00,2,1,3
2021-12-22,05:00:00,1,4,5
2021-12-22,06:00:00,6,14,20
2021-12-22,07:00:00,10,19,29
2021-12-22,08:00:00,13,22,35
2021-12-22,09:00:00,20,23,43
2021-12-22,10:00:00,37,43,80
2021-12-22,11:00:00,32,35,67
2021-12-22,12:00:00,30,36,66
2021-12-22,13:00:00,19,51,70
2021-12-22,14:00:00,30,26,56
2021-12-22,15:00:00,39,26,65
2021-12-22,16:00:00,32,21,53
2021-12-22,17:00:00,30,16,46
2021-12-22,18:00:00,17,13,30
2021-12-22,19:00:00,10,4,14
2021-12-22,20:00:00,9,9,18
2021-12-22,21:00:00,12,0,12
2021-12-22,22:00:00,5,4,9
2021-12-22,23:00:00,4,3,7
2021-12-23,00:00:00,2,2,4
2021-12-23,01:00:00,3,2,5
2021-12-23,02:00:00,1,1,2
2021-12-23,03:00:00,2,1,3
2021-12-23,04:00:00,0,0,0
2021-12-23,05:00:00,2,6,8
2021-12-23,06:00:00,13,11,24
2021-12-23,07:00:00,16,12,28
2021-12-23,08:00:00,18,23,41
2021-12-23,09:00:00,39,28,67
2021-12-23,10:00:00,20,39,59
2021-12-23,11:00:00,31,42,73
2021-12-23,12:00:00,32,29,61
2021-12-23,13:00:00,13,19,32
2021-12-23,14:00:00,19,27,46
2021-12-23,15:00:00,31,27,58
2021-12-23,16:00:00,17,23,40
2021-12-23,17:00:00,15,14,29
2021-12-23,18:00:00,15,20,35
2021-12-23,19:00:00,11,3,14
2021-12-23,20:00:00,12,11,23
2021-12-23,21:00:00,7,3,10
2021-12-23,22:00:00,9,3,12
2021-12-23,23:00:00,2,4,6
2021-12-24,00:00:00,5,0,5
2021-12-24,01:00:00,2,1,3
2021-12-24,02:00:00,3,1,4
2021-12-24,03:00:00,0,0,0
2021-12-24,04:00:00,0,0,0
2021-12-24,05:00:00,6,3,9
2021-12-24,06:00:00,5,8,13
2021-12-24,07:00:00,11,14,25
2021-12-24,08:00:00,20,30,50
2021-12-24,09:00:00,29,36,65
2021-12-24,10:00:00,37,39,76
2021-12-24,11:00:00,35,54,89
2021-12-24,12:00:00,37,39,76
2021-12-24,13:00:00,18,29,47
2021-12-24,14:00:00,34,26,60
2021-12-24,15:00:00,20,29,49
2021-12-24,16:00:00,19,20,39
2021-12-24,17:00:00,12,6,18
2021-12-24,18:00:00,5,12,17
2021-12-24,19:00:00,6,9,15
2021-12-24,20:00:00,3,1,4
2021-12-24,21:00:00,4,2,6
2021-12-24,22:00:00,4,3,7
2021-12-24,23:00:00,1,5,6
2021-12-25,00:00:00,6,0,6
2021-12-25,01:00:00,2,2,4
2021-12-25,02:00:00,3,1,4
2021-12-25,03:00:00,1,0,1
2021-12-25,04:00:00,1,0,1
2021-12-25,05:00:00,1,1,2
2021-12-25,06:00:00,2,3,5
2021-12-25,07:00:00,9,3,12
2021-12-25,08:00:00,10,16,26
2021-12-25,09:00:00,17,15,32
2021-12-25,10:00:00,23,15,38
2021-12-25,11:00:00,23,26,49
2021-12-25,12:00:00,6,16,22
2021-12-25,13:00:00,16,20,36
2021-12-25,14:00:00,7,17,24
2021-12-25,15:00:00,14,5,19
2021-12-25,16:00:00,7,4,11
2021-12-25,17:00:00,4,4,8
2021-12-25,18:00:00,4,9,13
2021-12-25,19:00:00,0,1,1
2021-12-25,20:00:00,5,0,5
2021-12-25,21:00:00,5,3,8
2021-12-25,22:00:00,1,1,2
2021-12-25,23:00:00,1,1,2
2021-12-26,00:00:00,2,2,4
2021-12-26,01:00:00,2,0,2
2021-12-26,02:00:00,0,0,0
2021-12-26,03:00:00,0,0,0
2021-12-26,04:00:00,1,2,3
2021-12-26,05:00:00,0,2,2
2021-12-26,06:00:00,1,1,2
2021-12-26,07:00:00,5,9,14
2021-12-26,08:00:00,14,8,22
2021-12-26,09:00:00,28,23,51
2021-12-26,10:00:00,37,37,74
2021-12-26,11:00:00,32,36,68
2021-12-26,12:00:00,46,43,89
2021-12-26,13:00:00,25,32,57
2021-12-26,14:00:00,37,33,70
2021-12-26,15:00:00,32,47,79
2021-12-26,16:00:00,22,29,51
2021-12-26,17:00:00,15,8,23
2021-12-26,18:00:00,3,3,6
2021-12-26,19:00:00,5,4,9
2021-12-26,20:00:00,4,3,7
2021-12-26,21:00:00,4,4,8
2021-12-26,22:00:00,2,7,9
2021-12-26,23:00:00,1,1,2
2021-12-27,00:00:00,3,0,3
2021-12-27,01:00:00,0,1,1
2021-12-27,02:00:00,1,0,1
2021-12-27,03:00:00,0,0,0
2021-12-27,04:00:00,0,1,1
2021-12-27,05:00:00,2,3,5
2021-12-27,06:00:00,1,3,4
2021-12-27,07:00:00,6,2,8
2021-12-27,08:00:00,8,17,25
2021-12-27,09:00:00,7,15,22
2021-12-27,10:00:00,14,20,34
2021-12-27,11:00:00,15,11,26
2021-12-27,12:00:00,19,17,36
2021-12-27,13:00:00,26,26,52
2021-12-27,14:00:00,29,31,60
2021-12-27,15:00:00,32,41,73
2021-12-27,16:00:00,20,31,51
2021-12-27,17:00:00,8,6,14
2021-12-27,18:00:00,6,4,10
2021-12-27,19:00:00,4,1,5
2021-12-27,20:00:00,9,4,13
2021-12-27,21:00:00,6,1,7
2021-12-27,22:00:00,2,4,6
2021-12-27,23:00:00,4,0,4
2021-12-28,00:00:00,7,1,8
2021-12-28,01:00:00,3,1,4
2021-12-28,02:00:00,2,0,2
2021-12-28,03:00:00,0,0,0
2021-12-28,04:00:00,1,0,1
2021-12-28,05:00:00,3,5,8
2021-12-28,06:00:00,0,6,6
2021-12-28,07:00:00,9,10,19
2021-12-28,08:00:00,21,20,41
2021-12-28,09:00:00,34,26,60
2021-12-28,10:00:00,26,33,59
2021-12-28,11:00:00,41,38,79
2021-12-28,12:00:00,42,43,85
2021-12-28,13:00:00,48,58,106
2021-12-28,14:00:00,42,45,87
2021-12-28,15:00:00,29,34,63
2021-12-28,16:00:00,19,19,38
2021-12-28,17:00:00,17,7,24
2021-12-28,18:00:00,12,5,17
2021-12-28,19:00:00,3,9,12
2021-12-28,20:00:00,4,4,8
2021-12-28,21:00:00,2,1,3
2021-12-28,22:00:00,5,8,13
2021-12-28,23:00:00,9,2,11
2021-12-29,00:00:00,0,0,0
2021-12-29,01:00:00,1,0,1
2021-12-29,02:00:00,0,0,0
2021-12-29,03:00:00,0,1,1
2021-12-29,04:00:00,1,0,1
2021-12-29,05:00:00,3,3,6
2021-12-29,06:00:00,3,5,8
2021-12-29,07:00:00,10,18,28
2021-12-29,08:00:00,17,14,31
2021-12-29,09:00:00,8,26,34
2021-12-29,10:00:00,30,30,60
2021-12-29,11:00:00,30,43,73
2021-12-29,12:00:00,34,28,62
2021-12-29,13:00:00,29,50,79
2021-12-29,14:00:00,36,56,92
2021-12-29,15:00:00,46,40,86
2021-12-29,16:00:00,41,35,76
2021-12-29,17:00:00,23,12,35
2021-12-29,18:00:00,15,12,27
2021-12-29,19:00:00,7,7,14
2021-12-29,20:00:00,7,7,14
2021-12-29,21:00:00,7,2,9
2021-12-29,22:00:00,5,6,11
2021-12-29,23:00:00,2,2,4
2021-12-30,00:00:00,2,1,3
2021-12-30,01:00:00,1,0,1
2021-12-30,02:00:00,0,0,0
2021-12-30,03:00:00,0,3,3
2021-12-30,04:00:00,0,0,0
2021-12-30,05:00:00,4,2,6
2021-12-30,06:00:00,7,4,11
2021-12-30,07:00:00,6,14,20
2021-12-30,08:00:00,28,27,55
2021-12-30,09:00:00,31,35,66
2021-12-30,10:00:00,37,37,74
2021-12-30,11:00:00,28,50,78
2021-12-30,12:00:00,44,43,87
2021-12-30,13:00:00,26,38,64
2021-12-30,14:00:00,20,38,58
2021-12-30,15:00:00,22,36,58
2021-12-30,16:00:00,31,21,52
2021-12-30,17:00:00,22,14,36
2021-12-30,18:00:00,15,7,22
2021-12-30,19:00:00,10,11,21
2021-12-30,20:00:00,5,10,15
2021-12-30,21:00:00,6,6,12
2021-12-30,22:00:00,8,2,10
2021-12-30,23:00:00,3,4,7
2021-12-31,00:00:00,3,1,4
2021-12-31,01:00:00,4,2,6
2021-12-31,02:00:00,1,1,2
2021-12-31,03:00:00,0,5,5
2021-12-31,04:00:00,2,1,3
2021-12-31,05:00:00,3,3,6
2021-12-31,06:00:00,3,5,8
2021-12-31,07:00:00,11,4,15
2021-12-31,08:00:00,10,23,33
2021-12-31,09:00:00,19,32,51
2021-12-31,10:00:00,30,23,53
2021-12-31,11:00:00,35,32,67
2021-12-31,12:00:00,39,33,72
2021-12-31,13:00:00,34,46,80
2021-12-31,14:00:00,34,59,93
2021-12-31,15:00:00,30,39,69
2021-12-31,16:00:00,28,29,57
2021-12-31,17:00:00,20,24,44
2021-12-31,18:00:00,4,5,9
2021-12-31,19:00:00,4,11,15
2021-12-31,20:00:00,5,4,9
2021-12-31,21:00:00,5,2,7
2021-12-31,22:00:00,5,5,10
2021-12-31,23:00:00,2,2,4
